Theta_e
293 293 292 292 292 292 292 291 290 290 290 288 287 287 286 286 286 285 284 283 283 282 282 282 282 282 283 281 281 281 281 280 280 280 279 280 279 279 279 279 279 279
293 293 293 292 292 292 291 290 290 290 289 289 288 287 288 287 286 285 284 283 283 283 282 282 282 282 282 281 281 280 280 280 280 281 280 279 279 279 279 279 279 279
292 291 291 290 291 290 290 290 289 289 288 288 288 287 287 286 285 284 284 283 283 283 282 282 282 282 282 281 281 281 281 280 280 280 280 280 280 279 279 279 279 279
291 291 290 290 290 289 289 289 288 288 287 288 286 287 287 286 285 283 283 284 283 282 282 282 282 281 281 281 282 282 282 281 281 281 280 280 280 280 279 279 280 279
291 290 289 289 289 288 288 287 286 286 286 286 286 285 286 284 284 283 283 282 282 281 281 282 281 281 281 281 282 282 282 281 281 281 280 280 280 280 280 279 279 279
290 290 289 289 287 287 287 285 285 285 285 285 285 285 284 284 283 283 282 282 282 282 281 281 281 281 281 281 281 282 282 281 281 281 280 280 280 280 281 280 279 279
289 289 289 288 287 286 285 285 285 285 284 284 284 284 284 283 283 282 282 282 281 281 281 281 281 281 282 282 281 281 280 280 280 280 280 280 280 280 281 280 279 279
289 288 287 286 285 285 285 284 284 285 284 284 283 283 283 283 282 282 282 281 281 280 280 281 282 282 282 281 281 280 281 282 281 280 280 280 280 280 280 280 280 279
287 287 286 285 285 285 285 285 284 284 283 284 283 282 282 282 282 282 281 281 280 280 280 280 281 281 281 280 280 280 280 280 281 280 280 280 279 280 280 280 280 279
287 287 286 286 286 286 285 285 285 284 283 283 282 282 281 281 281 282 282 281 281 281 281 281 281 280 280 280 279 279 279 279 279 280 280 280 280 280 280 280 279 279
286 285 285 285 285 285 284 284 284 284 283 283 282 282 282 281 282 281 282 281 282 281 281 281 281 280 280 280 280 279 279 280 279 280 280 280 280 280 281 280 280 279
285 285 285 284 284 284 284 284 284 283 283 283 282 282 281 281 281 282 283 282 281 281 281 281 281 280 280 280 279 279 279 279 279 279 280 280 280 280 280 280 280 280
285 285 285 285 284 284 284 284 284 283 283 283 283 282 281 281 282 281 282 281 282 282 281 281 280 279 279 279 279 279 279 279 279 279 279 280 280 280 280 280 280 280
285 284 284 285 284 284 284 283 283 283 283 283 282 282 282 282 282 283 283 282 282 282 282 282 281 280 280 279 279 279 279 279 280 280 280 280 280 280 280 280 280 280
284 284 284 284 283 283 283 283 283 283 283 282 282 282 283 282 283 283 283 282 282 282 282 282 282 282 281 281 280 280 280 280 280 280 280 280 280 280 280 280 280 280
284 283 283 283 283 283 283 283 283 283 283 282 282 282 282 283 283 283 283 282 282 282 282 283 282 282 283 285 286 283 282 281 281 281 281 281 280 280 280 280 280 280
283 283 282 283 282 282 282 282 282 282 282 282 281 282 282 282 282 282 282 282 282 282 282 282 282 283 284 288 288 288 285 283 281 281 281 281 280 280 280 280 280 280
282 282 282 282 281 282 281 281 281 281 281 281 281 281 282 281 282 282 281 281 282 281 281 281 281 284 287 287 288 289 287 284 282 281 281 280 280 280 280 280 280 280
281 281 281 281 281 281 281 281 280 280 280 281 281 281 280 280 280 280 280 280 280 280 280 281 280 284 286 287 288 288 289 287 283 282 281 280 280 280 280 280 280 280
281 281 281 281 280 280 280 280 280 280 279 279 280 281 280 280 280 280 280 280 280 279 279 280 280 283 287 287 287 287 288 287 283 282 281 281 280 280 280 280 280 280
280 280 280 280 280 280 279 279 279 279 280 280 280 280 279 280 279 279 280 280 279 280 279 280 280 285 286 287 287 287 288 287 282 281 280 280 280 280 280 280 280 280
280 279 279 279 279 279 279 279 279 279 279 279 280 279 279 279 279 279 279 279 279 279 279 279 279 284 286 286 286 287 288 283 281 280 280 280 280 280 280 280 280 280
279 279 279 279 278 278 278 278 279 279 279 280 278 278 278 279 279 279 279 279 279 279 279 279 279 282 285 285 286 287 285 282 281 280 280 280 280 280 280 280 281 281
279 278 278 278 277 277 278 278 278 278 278 279 278 278 278 278 278 278 279 279 279 279 279 279 279 281 284 285 286 286 285 282 281 280 279 279 279 280 280 280 281 281
278 278 278 278 277 278 278 278 278 278 279 278 278 277 278 278 279 278 278 278 279 279 280 279 279 279 283 284 285 285 284 281 281 279 278 278 278 279 280 281 281 282
278 278 278 278 277 277 278 278 278 278 278 278 278 277 277 278 278 278 277 278 278 278 278 278 278 278 280 284 284 284 284 281 279 278 277 277 278 278 279 279 279 278
Wind_Speed
6 5 6 6 7 6 6 6 5 6 6 5 7 7 8 8 7 9 9 8 8 8 8 8 7 7 7 7 7 7 7 8 7 7 8 8 9 9 10 10 9 9
5 5 5 5 5 4 4 4 5 5 6 5 5 5 6 5 7 8 8 8 8 9 8 8 8 8 7 7 7 8 8 8 9 5 8 9 10 9 11 10 10 9
4 4 4 5 6 5 5 5 4 4 5 5 5 4 5 4 4 5 6 7 7 7 7 7 7 7 7 7 7 8 8 8 9 7 8 10 8 9 9 9 9 10
4 4 4 4 4 5 4 4 5 5 5 6 5 5 4 4 3 3 4 4 4 5 5 5 6 6 6 7 7 8 8 9 8 6 8 8 8 9 10 8 9 9
5 4 4 4 4 4 4 4 5 5 5 5 5 5 5 4 3 2 2 3 4 4 4 5 5 6 6 6 7 8 8 8 7 7 9 9 9 8 9 8 10 12
6 5 5 4 4 4 4 4 4 5 5 5 5 4 4 4 3 3 4 4 4 4 5 4 5 5 6 7 7 8 8 8 8 8 10 10 10 8 8 8 10 12
6 5 5 5 5 5 4 4 4 4 4 4 3 4 4 4 4 4 4 4 4 4 5 6 6 7 6 7 7 8 7 8 8 9 10 10 9 10 9 9 10 11
5 5 4 4 4 4 4 4 4 4 4 3 3 4 3 4 4 4 4 4 4 4 4 5 6 7 6 5 7 8 9 7 8 9 10 11 9 11 10 8 10 12
5 5 5 5 5 5 5 5 5 5 4 3 4 4 4 3 4 4 3 2 3 4 4 4 5 5 5 5 6 8 9 8 7 8 10 10 11 11 11 10 11 11
7 6 7 7 6 6 6 5 5 5 5 5 4 4 4 4 4 4 3 3 3 4 4 5 5 5 5 5 6 7 8 8 8 8 9 10 11 11 11 11 11 12
6 6 6 6 6 5 6 5 5 5 5 5 5 5 5 4 5 4 4 4 4 4 4 4 5 5 5 6 6 6 7 8 8 8 9 10 11 11 11 11 12 12
6 6 6 6 6 6 6 6 6 5 5 5 5 5 5 5 5 5 4 4 4 5 4 4 4 4 5 6 6 6 7 7 8 8 9 10 10 11 11 11 12 13
7 7 7 6 7 6 6 6 6 6 5 5 5 5 5 5 5 5 5 4 5 4 5 5 5 4 5 6 6 7 7 8 8 8 10 10 10 11 11 11 11 11
6 5 6 6 6 6 6 6 5 6 5 5 5 5 5 5 4 5 5 4 5 5 5 5 5 5 5 5 6 7 7 8 8 9 10 10 10 11 11 11 11 12
5 5 5 5 5 5 6 6 6 5 5 5 5 5 5 4 4 5 5 5 5 5 6 5 5 6 5 5 6 7 7 9 9 10 10 11 11 11 11 11 11 11
6 5 6 5 6 7 6 6 6 6 6 6 6 5 5 5 5 5 5 5 6 6 5 5 5 5 7 12 11 8 8 7 8 9 10 11 11 12 11 11 12 12
6 6 5 6 6 6 6 7 7 6 6 6 6 6 6 6 5 6 6 6 6 7 7 6 5 6 12 11 12 15 10 8 8 9 9 10 11 12 12 12 10 11
5 5 6 6 6 7 7 6 6 6 6 6 7 7 7 5 6 5 5 5 6 6 7 7 7 9 14 15 15 13 14 10 8 8 8 8 10 11 11 11 12 12
5 6 6 6 7 6 6 6 6 6 6 8 8 6 5 6 6 6 7 7 6 7 9 10 8 12 15 17 18 18 17 16 9 8 9 9 10 11 12 12 11 12
5 6 6 6 5 6 6 6 6 6 5 5 5 6 7 7 7 8 8 8 8 7 7 8 9 13 18 20 20 21 21 18 10 9 9 9 10 11 11 11 12 12
5 5 5 5 5 5 5 5 6 5 6 6 7 6 7 7 7 8 7 7 8 8 7 8 9 16 18 20 20 22 23 18 10 9 9 9 9 10 11 11 12 11
4 4 4 4 5 5 5 6 6 6 6 6 6 7 6 5 6 5 8 9 8 9 9 9 9 16 18 19 22 22 25 14 12 12 12 11 12 11 11 11 10 11
4 5 4 5 5 6 6 6 6 7 6 5 7 7 8 8 7 8 8 9 10 10 11 11 10 13 18 20 21 23 19 13 13 12 12 13 13 13 12 11 11 11
4 4 4 4 4 5 5 6 6 5 5 6 6 8 8 8 7 8 8 8 10 11 11 12 12 13 18 20 21 22 20 15 12 12 13 14 14 13 12 12 13 18
4 4 4 4 4 5 5 5 6 6 6 6 6 6 8 7 7 8 9 8 8 10 13 13 12 13 16 18 21 22 19 13 12 12 14 15 14 14 13 12 11 9
3 4 4 3 4 4 5 5 5 6 7 7 7 7 8 8 8 8 10 9 9 9 10 11 12 12 13 19 20 23 24 16 12 12 13 15 15 13 12 11 12 13
Wind_Direction
242 242 246 249 253 249 257 256 253 248 243 227 219 223 216 220 200 198 202 201 205 208 210 213 214 217 217 216 218 222 223 228 229 220 222 223 231 228 234 235 234 234
245 244 253 261 271 276 273 260 260 250 256 247 236 232 232 211 210 196 197 201 203 209 207 211 213 215 215 215 217 222 230 229 235 220 229 228 235 233 240 238 238 239
270 269 269 268 268 272 274 279 278 272 267 261 260 256 253 235 218 204 200 197 204 210 211 212 216 218 218 218 218 225 232 232 237 230 234 236 237 238 241 241 242 237
322 312 304 293 288 285 290 300 301 304 306 308 292 281 276 275 245 210 211 204 207 218 219 220 222 225 224 225 224 233 236 240 239 235 240 243 239 240 244 240 244 243
329 328 325 324 320 322 330 324 311 305 300 292 307 307 305 300 285 267 225 231 222 233 230 231 233 231 229 232 229 239 239 247 241 236 242 247 243 238 243 238 243 247
349 349 341 336 324 332 324 312 298 306 305 317 299 308 306 295 287 262 254 245 238 233 242 243 239 236 230 232 234 239 243 247 247 242 247 249 250 240 244 240 244 248
347 351 345 347 351 342 338 314 306 304 304 285 317 315 310 313 292 265 251 243 240 238 236 242 241 246 235 237 239 248 246 247 252 248 252 255 255 254 248 251 251 254
343 344 344 348 349 330 326 315 307 305 286 316 317 291 310 296 288 272 257 248 246 251 249 244 247 248 250 242 248 252 256 253 259 259 262 265 265 267 262 255 258 260
357 355 356 356 359 343 349 340 333 327 323 329 310 303 316 318 306 301 282 265 261 265 266 267 261 259 258 254 255 257 262 264 260 262 265 268 268 268 268 265 264 262
10 8 13 9 11 3 6 355 354 353 351 359 344 344 341 322 333 322 319 298 287 282 278 277 279 278 274 267 264 265 267 269 270 266 267 269 270 271 270 268 265 269
14 10 14 10 9 3 1 356 354 357 356 356 358 354 343 346 335 338 333 321 296 282 282 279 276 276 279 277 275 272 272 274 273 272 270 270 271 271 272 270 269 267
11 10 9 7 3 1 360 358 357 360 359 353 1 353 346 343 340 335 334 323 313 300 291 285 277 272 273 276 279 281 279 275 274 273 272 273 272 272 270 267 268 269
12 11 8 8 7 4 3 4 4 360 3 355 348 354 349 344 336 335 323 322 310 306 300 293 283 272 269 274 276 277 276 276 275 273 275 274 272 272 270 267 265 266
10 8 17 13 12 11 9 7 4 3 359 350 356 356 352 345 337 328 315 314 305 304 298 294 289 278 270 266 268 269 273 276 276 278 278 275 275 274 274 272 269 268
6 11 14 15 10 10 9 6 3 360 357 357 358 357 349 344 336 331 325 320 307 301 298 299 296 288 275 271 271 274 273 281 282 281 278 280 278 275 273 273 272 268
10 13 15 12 14 12 8 4 5 5 5 4 358 354 346 340 341 338 339 330 326 320 312 307 299 291 285 280 278 276 275 270 278 278 281 281 282 281 276 269 269 270
16 14 14 18 14 14 10 13 9 8 11 6 0 354 348 343 345 346 343 339 335 329 325 317 307 301 298 287 283 287 287 279 270 273 272 277 280 282 284 283 275 270
15 14 18 16 18 15 10 8 7 8 10 5 356 354 348 344 345 336 332 328 324 321 317 312 307 300 304 307 300 287 295 292 281 275 275 273 275 278 280 281 282 280
16 19 17 17 17 12 6 5 5 3 3 3 354 334 332 345 341 338 338 333 330 325 320 317 313 308 310 309 310 310 301 302 295 283 282 279 279 278 280 282 282 283
19 20 18 10 7 5 4 3 2 357 349 341 338 336 342 338 337 338 331 332 326 318 310 307 307 311 314 316 317 316 315 315 304 299 290 283 282 282 282 284 282 285
20 17 12 3 360 359 359 358 351 342 343 341 342 336 334 330 326 327 323 317 315 313 310 307 304 307 314 317 318 318 319 322 314 305 297 290 287 283 283 284 285 282
25 12 4 360 358 355 358 351 348 339 339 334 335 329 324 317 316 317 320 320 316 317 317 312 310 311 315 318 320 320 321 321 317 312 309 304 300 297 291 289 287 287
21 14 359 360 357 356 354 348 344 335 333 335 339 334 329 326 324 325 322 320 319 320 318 313 311 311 314 316 316 316 316 312 311 308 304 304 303 304 300 295 294 290
16 12 358 354 360 356 345 337 331 325 327 330 335 330 325 317 315 318 315 311 311 310 311 309 307 310 311 312 314 316 317 315 313 311 309 309 306 303 301 296 291 290
14 6 349 351 349 345 337 332 328 321 313 321 320 318 309 305 311 313 310 306 302 303 305 307 307 308 310 312 314 317 318 314 315 315 312 309 308 305 302 300 305 311
17 355 334 338 335 330 326 319 312 319 320 320 316 311 305 305 306 305 304 302 302 304 306 305 306 307 310 311 312 315 318 319 316 312 309 308 307 307 314 319 318 314